EUTELSAT 7A

Last updated on Sat Apr 13 2024 01:02:36 GMT+0100 (British Summer Time)

1 28187U 04008A 24103.56466991 .00000097 00000+0 00000+0 0 9998 2 28187 3.8003 81.3280 0002730 299.6245 244.3712 1.00271289 73376
UTC large
Height (km)
Speed (km/s)
/
Latitude / Longitude
Inclination (degrees)
Orbital Period (minutes)
Azimuth
Elevation
Range (km)
Doppler Factor

Next 0 passes for location: London (51.5072 / 0.1276)

Sorry there are no passes over London.